Wind_Speed
17 15 14 13 13 13 12 12 11 9 8 8 8 9 9 8 8 8 8 8 8 7 8 8 7 7 6 6 6 7 7 7 8 9 10 11 11 11 12 11 11 12
19 17 16 15 14 13 12 12 11 11 9 9 9 9 9 9 8 8 8 8 8 8 8 8 7 7 6 6 7 7 7 7 8 8 8 10 11 12 12 12 11 11
20 19 18 16 14 13 12 12 11 11 10 9 9 9 9 9 8 8 8 9 9 9 9 8 7 7 6 7 7 6 7 7 8 8 8 9 10 11 12 11 11 11
20 20 19 17 16 15 14 13 12 11 11 10 9 9 9 9 9 8 8 9 9 9 9 8 7 7 7 7 7 6 6 7 7 7 8 8 9 10 10 11 11 12
19 19 19 19 18 17 15 14 13 12 11 10 10 9 9 9 9 9 9 9 9 9 9 8 8 8 7 7 7 6 6 6 6 7 7 8 8 9 9 10 11 12
18 18 19 20 20 19 18 16 15 14 12 11 11 10 10 9 9 9 9 9 9 9 9 8 8 8 7 7 7 6 6 6 6 6 7 7 8 8 8 9 10 11
18 18 19 19 20 20 19 18 17 16 14 13 12 11 11 10 9 9 9 9 10 10 9 9 8 9 8 8 7 6 6 6 6 6 6 6 7 8 8 9 9 10
19 18 19 19 20 20 21 20 19 18 16 15 14 13 12 11 10 10 10 10 10 10 11 10 9 9 9 9 9 8 7 7 6 7 6 6 7 7 8 9 9 9
21 20 20 20 21 20 20 21 20 20 19 17 16 14 14 12 11 12 11 11 11 10 11 11 10 10 10 10 10 9 9 8 8 8 8 7 7 7 8 9 9 9
22 22 21 21 21 20 20 20 20 21 21 19 18 17 16 14 13 13 13 13 12 11 11 11 11 11 11 11 11 11 11 10 10 10 10 9 8 9 9 10 9 9
24 23 22 21 21 21 21 21 20 21 21 21 21 20 18 17 16 15 15 14 13 13 12 12 12 12 12 12 11 12 12 11 11 11 11 11 10 10 11 11 11 10
25 24 23 22 21 20 20 20 21 22 22 23 23 22 21 20 19 18 17 16 15 14 14 13 13 13 13 13 13 13 13 12 12 12 12 12 12 11 12 12 12 11
24 24 24 23 21 20 19 19 20 20 21 22 22 23 23 22 21 20 19 18 17 16 15 15 15 14 14 14 14 14 14 14 14 13 13 13 12 13 13 13 13 13
23 24 25 24 21 20 20 19 19 19 19 20 21 22 22 22 22 22 21 20 19 18 17 17 17 17 16 15 15 15 15 15 14 14 14 13 13 13 14 14 14 14
23 23 24 24 24 23 22 21 21 20 20 19 19 19 20 20 21 21 21 21 21 20 20 20 20 19 18 17 17 16 16 16 15 15 15 15 14 14 14 15 15 15
23 22 22 24 25 26 25 24 23 22 21 20 18 18 18 19 20 20 20 20 20 20 20 21 22 21 20 19 19 18 18 18 17 17 17 17 17 16 16 16 16 16
22 23 23 22 23 24 26 26 26 26 24 21 20 19 18 18 19 20 20 19 18 19 20 21 22 22 22 21 21 21 21 20 20 19 19 19 19 19 18 18 18 18
21 22 23 23 23 23 25 26 28 29 28 25 22 21 20 20 20 20 20 21 20 19 19 20 20 20 21 22 22 23 23 23 22 22 22 22 21 21 20 19 20 20
18 19 21 22 22 23 24 25 27 28 28 27 25 23 23 23 23 22 22 22 22 21 20 19 19 19 20 21 22 23 24 24 25 24 24 24 23 23 21 20 20 20
16 18 20 21 22 22 22 21 23 24 25 26 27 26 26 26 25 25 25 24 23 22 20 19 18 18 19 19 20 21 22 24 25 24 24 24 24 24 23 22 21 20
15 18 20 21 22 21 20 19 20 20 21 22 24 26 27 27 27 27 26 26 25 23 21 20 18 18 18 19 19 20 21 23 24 24 24 23 23 23 24 23 22 21
17 20 21 22 22 22 21 20 20 19 18 19 21 23 25 26 26 26 25 26 26 26 25 24 23 22 21 21 21 21 21 22 23 24 24 24 23 23 23 23 23 23
23 24 24 23 23 23 23 23 23 22 21 20 21 23 24 25 25 24 24 24 25 26 27 27 27 27 25 24 23 22 22 22 23 23 24 24 23 23 23 23 23 23
23 25 26 25 24 23 24 24 24 24 25 24 24 24 25 25 25 25 24 25 26 27 29 29 30 30 28 26 25 24 24 24 24 24 24 23 23 23 23 23 23 24
17 19 22 23 24 24 24 24 24 25 27 28 27 27 27 27 26 26 27 28 29 30 31 32 32 32 30 28 27 27 27 27 27 27 26 25 25 25 24 24 24 24
13 15 17 19 21 22 24 25 25 26 28 28 29 29 30 30 30 29 29 30 30 30 30 30 31 31 31 31 31 31 30 30 30 30 30 29 29 29 28 27 26 25
Wind_Direction
210 211 212 213 210 209 209 211 213 213 212 210 208 210 211 209 207 205 205 200 197 199 196 197 203 204 208 209 208 213 217 218 218 219 220 218 218 220 223 225 222 218
210 211 213 214 212 211 212 213 214 214 214 213 211 214 215 214 210 206 210 207 202 204 203 199 203 207 207 207 210 212 215 215 215 218 219 218 219 220 224 230 226 219
211 211 212 214 215 216 217 216 216 215 216 217 215 216 217 217 214 209 211 215 208 205 206 203 206 210 209 208 212 213 215 217 216 217 217 217 219 218 221 228 228 221
211 212 211 213 215 218 220 219 219 218 219 221 217 216 217 218 218 213 213 217 213 209 208 207 211 214 213 213 216 217 218 224 226 222 219 218 217 216 217 223 225 223
211 212 211 213 214 217 219 220 221 221 221 221 218 216 215 216 220 220 217 215 215 218 216 213 215 218 218 218 219 222 223 227 228 224 222 221 218 216 215 218 221 223
209 211 212 213 213 215 217 218 221 222 221 222 220 218 217 214 215 219 222 219 219 223 223 223 225 225 226 225 222 223 225 228 230 226 225 226 223 220 219 220 221 221
207 208 211 213 213 214 214 216 220 221 222 223 222 223 222 218 215 215 218 222 225 227 227 228 232 234 236 233 228 227 226 228 232 232 235 235 228 224 224 226 226 225
207 206 209 212 213 213 212 214 218 220 223 224 224 227 227 225 224 221 219 221 225 229 230 230 232 236 239 238 235 233 230 233 236 237 240 239 232 228 228 232 233 233
210 209 208 211 213 213 212 213 215 218 222 224 225 227 229 228 228 230 230 228 226 227 229 232 235 237 240 240 239 237 233 234 236 238 241 242 241 240 235 235 238 239
211 212 212 213 214 213 211 213 215 217 220 222 224 226 227 228 228 230 235 236 234 230 227 230 234 237 241 242 242 242 239 236 234 235 239 240 242 247 248 245 243 242
211 213 215 217 218 216 211 209 212 217 219 220 222 224 224 226 227 229 233 237 239 238 234 233 233 235 238 239 242 245 246 244 240 237 238 238 238 242 248 252 252 251
213 214 217 219 222 224 219 212 209 213 217 218 220 223 223 223 224 226 229 233 237 240 240 238 237 236 236 237 239 242 246 249 248 245 243 243 244 244 246 250 253 255
216 215 217 218 221 226 228 225 218 215 217 220 220 223 224 224 223 224 226 228 231 236 240 241 242 240 239 240 242 243 245 248 251 252 251 249 250 251 252 252 251 252
221 219 217 216 218 222 226 230 230 224 220 222 225 226 228 228 227 224 224 227 229 232 235 239 242 243 242 244 247 249 251 251 253 257 259 258 257 256 257 259 259 257
221 220 216 214 216 219 221 225 230 229 223 221 225 229 232 234 234 230 225 223 226 230 233 236 239 241 242 244 247 251 254 256 258 259 261 263 262 260 258 259 260 261
215 216 215 217 219 219 221 224 227 230 228 224 224 228 233 236 239 239 235 227 222 223 229 235 238 239 240 241 244 247 250 254 257 260 262 264 265 265 263 261 260 261
215 217 216 218 220 221 223 225 227 228 229 228 226 227 231 235 237 241 246 245 236 225 224 230 236 240 242 243 244 245 247 249 252 256 259 261 264 265 266 266 266 266
218 222 222 220 220 221 223 225 228 229 230 230 228 228 232 236 239 241 244 250 251 244 233 228 230 235 241 245 247 247 248 249 251 252 254 257 261 262 264 264 265 266
220 224 226 224 221 221 224 227 230 231 230 230 228 228 231 237 244 247 245 244 247 250 247 239 233 231 234 238 243 246 248 250 252 253 253 254 257 260 262 262 261 262
224 225 225 225 224 224 227 230 231 229 229 229 228 229 231 236 243 248 248 244 242 244 246 246 242 238 237 237 238 240 244 247 250 252 253 254 255 257 260 262 263 263
221 224 225 226 226 226 227 228 227 225 226 228 229 230 232 235 239 243 245 245 245 245 244 243 243 243 242 242 241 241 241 242 244 247 248 250 252 253 256 258 261 264
212 216 224 229 228 226 225 224 221 218 220 223 227 228 231 234 237 238 240 243 247 249 248 246 246 245 243 242 242 243 245 245 246 247 248 248 250 251 254 255 257 259
215 215 222 230 231 228 225 224 222 218 216 219 224 228 230 231 233 235 238 242 246 250 251 251 252 252 249 246 244 244 245 247 248 249 251 252 252 252 253 255 258 260
225 221 222 228 233 233 232 230 228 227 225 225 228 233 235 235 235 237 240 242 245 248 250 252 254 255 254 253 252 251 251 251 252 253 255 255 254 253 253 254 256 259
242 235 232 233 236 239 240 237 233 232 233 233 233 235 238 241 242 243 244 245 246 248 250 252 254 255 257 258 258 257 257 258 261 264 266 265 263 263 265 265 263 261
257 254 249 247 245 244 245 245 240 236 236 237 236 237 239 242 245 247 247 248 249 249 251 253 255 257 259 261 262 262 261 261 263 267 271 272 271 271 272 272 270 267
Height
3234 3235 3237 3238 3239 3240 3241 3242 3243 3244 3244 3245 3246 3246 3247 3247 3248 3249 3249 3249 3250 3251 3251 3252 3252 3253 3254 3254 3255 3256 3256 3257 3258 3258 3259 3260 3261 3261 3262 3263 3263 3264
3233 3234 3236 3237 3238 3240 3241 3242 3242 3243 3244 3245 3245 3246 3247 3247 3248 3249 3249 3250 3250 3251 3251 3252 3253 3253 3253 3254 3254 3255 3256 3257 3257 3258 3259 3259 3260 3261 3262 3262 3263 3264
3231 3233 3234 3236 3238 3239 3240 3241 3242 3243 3243 3244 3245 3246 3246 3247 3248 3249 3249 3250 3250 3251 3251 3252 3252 3253 3254 3254 3254 3255 3256 3256 3257 3258 3258 3259 3260 3260 3261 3262 3263 3264
3230 3231 3233 3235 3236 3238 3239 3240 3241 3242 3243 3244 3244 3245 3246 3247 3248 3249 3249 3250 3251 3251 3252 3252 3253 3253 3254 3254 3255 3255 3256 3256 3257 3257 3258 3258 3259 3260 3260 3261 3262 3263
3228 3230 3231 3233 3235 3236 3238 3239 3240 3241 3242 3243 3244 3245 3245 3246 3247 3248 3249 3250 3251 3251 3252 3252 3253 3253 3254 3254 3255 3255 3256 3256 3257 3257 3258 3258 3259 3260 3260 3261 3261 3262
3227 3228 3230 3231 3233 3234 3236 3238 3239 3240 3241 3242 3243 3244 3245 3246 3247 3248 3249 3250 3250 3251 3252 3252 3253 3253 3254 3254 3255 3255 3255 3256 3257 3257 3258 3258 3259 3259 3260 3260 3261 3261
3226 3227 3228 3230 3231 3232 3234 3236 3237 3238 3240 3241 3242 3243 3244 3245 3246 3247 3248 3249 3250 3251 3251 3252 3252 3253 3253 3254 3254 3255 3255 3256 3256 3257 3257 3258 3258 3259 3260 3260 3261 3261
3224 3225 3227 3228 3229 3230 3232 3234 3235 3237 3238 3239 3241 3242 3243 3244 3245 3246 3247 3248 3249 3250 3251 3251 3252 3253 3253 3254 3254 3255 3255 3255 3256 3256 3257 3257 3258 3259 3259 3260 3260 3261
3222 3224 3225 3226 3227 3228 3230 3232 3233 3235 3236 3238 3239 3240 3242 3243 3244 3245 3246 3247 3248 3249 3250 3251 3251 3252 3253 3253 3254 3254 3254 3255 3255 3256 3256 3257 3257 3258 3258 3259 3259 3260
3220 3222 3223 3225 3226 3227 3228 3230 3231 3233 3234 3236 3237 3238 3240 3241 3243 3244 3245 3246 3246 3248 3249 3250 3250 3251 3252 3252 3253 3253 3254 3254 3254 3255 3255 3256 3256 3257 3257 3258 3258 3259
3219 3220 3221 3223 3224 3225 3226 3227 3229 3230 3232 3233 3235 3236 3237 3239 3240 3242 3243 3244 3245 3246 3247 3248 3249 3250 3250 3251 3252 3252 3253 3253 3253 3254 3254 3255 3255 3256 3256 3256 3257 3257
3217 3218 3219 3221 3222 3224 3226 3226 3226 3228 3229 3231 3232 3234 3235 3236 3238 3239 3240 3242 3243 3245 3246 3247 3247 3248 3249 3250 3250 3251 3251 3252 3252 3253 3253 3254 3254 3254 3255 3255 3255 3256
3214 3215 3217 3219 3221 3223 3225 3226 3226 3226 3227 3229 3230 3232 3233 3234 3235 3236 3238 3239 3241 3242 3244 3245 3246 3246 3247 3248 3249 3249 3250 3251 3251 3252 3252 3253 3253 3253 3253 3253 3254 3254
3211 3212 3214 3217 3219 3220 3222 3224 3226 3226 3226 3227 3229 3230 3231 3232 3233 3234 3235 3236 3238 3239 3241 3242 3243 3244 3246 3246 3247 3248 3248 3249 3250 3250 3250 3251 3251 3252 3252 3252 3252 3252
3208 3209 3211 3214 3216 3217 3219 3221 3223 3225 3225 3226 3227 3228 3230 3231 3232 3233 3233 3234 3235 3237 3238 3239 3241 3242 3243 3244 3245 3246 3246 3247 3247 3248 3248 3249 3249 3250 3250 3250 3250 3251
3204 3206 3208 3211 3212 3214 3216 3218 3220 3222 3224 3224 3224 3226 3228 3229 3230 3231 3232 3232 3233 3234 3235 3236 3238 3239 3240 3241 3242 3243 3243 3244 3244 3245 3246 3246 3247 3247 3247 3248 3248 3249
3201 3203 3205 3208 3210 3212 3214 3216 3217 3219 3221 3222 3222 3223 3225 3226 3228 3229 3230 3231 3232 3232 3233 3233 3235 3236 3237 3238 3239 3240 3240 3241 3241 3242 3242 3243 3243 3244 3245 3245 3246 3246
3199 3201 3203 3205 3207 3209 3211 3212 3214 3216 3217 3218 3219 3220 3222 3223 3225 3226 3227 3229 3230 3230 3231 3231 3232 3233 3234 3235 3236 3236 3237 3237 3237 3238 3238 3239 3240 3241 3241 3242 3243 3243
3197 3199 3201 3203 3204 3206 3208 3209 3211 3212 3214 3215 3216 3217 3218 3220 3221 3223 3224 3225 3226 3227 3228 3229 3230 3230 3231 3232 3232 3233 3234 3234 3234 3234 3235 3235 3236 3237 3238 3239 3239 3240
3195 3197 3199 3201 3202 3204 3205 3207 3208 3209 3210 3211 3212 3213 3215 3216 3218 3219 3221 3222 3223 3223 3225 3226 3228 3228 3228 3229 3229 3230 3231 3231 3231 3231 3232 3232 3233 3233 3234 3235 3236 3236
3194 3196 3197 3199 3200 3202 3203 3204 3205 3206 3207 3208 3209 3210 3211 3213 3214 3216 3217 3219 3220 3220 3222 3223 3224 3225 3225 3226 3226 3227 3227 3227 3228 3228 3228 3229 3230 3230 3231 3231 3232 3232
3194 3195 3197 3197 3198 3198 3199 3200 3202 3203 3204 3205 3206 3207 3208 3209 3211 3212 3214 3215 3216 3217 3218 3220 3220 3221 3221 3222 3223 3223 3224 3224 3225 3225 3226 3227 3227 3228 3228 3228 3228 3229
3193 3194 3195 3196 3195 3195 3195 3196 3198 3200 3201 3202 3203 3204 3205 3206 3208 3209 3210 3212 3213 3214 3215 3216 3216 3217 3218 3218 3219 3220 3221 3222 3222 3223 3224 3225 3226 3226 3226 3227 3227 3227
3191 3193 3193 3194 3193 3192 3191 3193 3195 3197 3198 3198 3199 3200 3202 3203 3204 3206 3207 3208 3209 3210 3211 3212 3212 3213 3214 3215 3216 3216 3217 3218 3219 3220 3221 3221 3222 3223 3224 3224 3224 3225
3187 3189 3189 3190 3189 3188 3187 3189 3193 3194 3195 3195 3196 3197 3198 3200 3201 3202 3204 3205 3206 3207 3207 3208 3208 3209 3210 3211 3212 3213 3213 3214 3215 3216 3217 3217 3218 3219 3220 3220 3221 3221
3183 3184 3185 3185 3185 3185 3184 3185 3188 3190 3191 3191 3192 3193 3195 3196 3198 3199 3200 3201 3202 3203 3204 3205 3205 3206 3207 3208 3208 3209 3210 3211 3212 3212 3213 3214 3214 3214 3215 3215 3216 3217